Wind_Speed
19 19 19 20 20 19 17 18 16 14 13 13 13 12 11 10 9 9 9 9 10 10 10 10 9 8 8 8 8 8 7 7 7 7 7 8 10 10 11 11 12 13 13 13 14 14 13 13 12
19 20 20 21 22 20 20 19 16 14 14 14 13 12 11 10 9 9 9 10 10 11 11 11 10 10 9 9 9 9 8 8 7 7 7 9 10 10 11 12 12 13 12 12 13 13 13 12 12
19 20 21 24 23 21 20 20 18 16 15 14 13 12 11 10 10 10 11 11 11 11 11 11 10 10 9 9 9 9 9 8 8 8 8 8 9 10 11 11 12 12 12 12 12 12 12 12 11
19 20 22 24 23 23 22 21 20 18 16 15 15 13 11 11 11 10 11 11 11 11 11 10 10 10 9 9 9 8 8 8 8 8 8 9 9 10 10 10 11 11 11 11 12 12 12 11 10
19 21 23 23 23 23 22 21 20 18 16 16 16 14 12 12 12 11 11 11 11 11 10 11 11 10 10 9 9 9 9 9 9 9 9 9 10 10 10 10 10 11 11 11 11 11 10 10 9
18 20 22 22 23 22 22 21 20 19 18 17 17 15 13 13 13 12 12 12 11 11 11 11 11 11 10 10 10 10 10 10 10 10 10 10 10 10 10 10 10 10 10 10 10 10 10 9 9
17 19 20 21 22 21 21 21 20 19 19 18 17 16 14 14 14 13 12 12 12 12 11 11 11 11 11 10 10 10 10 10 10 10 10 9 10 10 10 10 10 10 9 9 10 10 9 9 8
16 18 19 20 21 21 21 20 20 19 19 17 17 17 16 15 14 13 12 11 12 12 12 11 11 11 11 10 10 9 9 10 10 10 10 10 10 10 10 10 10 9 9 9 9 8 8 8 8
15 16 17 19 20 20 20 20 20 20 19 18 18 17 17 16 15 14 13 12 12 12 11 11 10 10 10 10 9 9 9 9 9 9 10 10 9 10 10 9 9 9 9 9 8 8 8 8 7
14 14 16 17 18 19 20 20 21 21 20 19 18 18 17 16 16 16 14 13 12 12 11 10 10 10 10 9 9 8 8 8 8 9 9 8 9 9 9 8 8 8 8 8 7 7 7 7 7
11 12 15 16 17 18 19 20 20 20 20 19 19 18 17 17 16 16 15 14 13 12 11 11 10 10 9 9 8 8 8 8 7 7 8 8 8 8 8 7 6 7 6 6 6 6 5 6 5
10 13 14 15 17 18 19 18 19 20 20 19 19 18 18 17 16 16 16 15 14 13 12 11 10 10 9 9 8 8 8 8 7 7 7 8 8 7 6 6 6 6 5 5 5 4 4 4 4
10 12 14 15 16 18 18 18 18 19 19 20 19 18 18 17 17 17 16 15 14 13 12 11 11 10 9 9 8 8 8 8 7 7 6 6 6 6 5 5 5 5 4 4 3 3 2 2 2
8 10 11 13 15 17 17 17 17 18 19 19 19 19 18 18 18 17 17 16 15 14 13 12 11 10 10 9 9 8 7 7 7 6 6 5 5 4 4 4 4 4 3 3 2 2 1 1 0
6 7 8 10 13 15 15 16 16 17 18 18 19 19 18 17 17 17 18 17 16 15 14 13 12 11 11 10 9 8 8 7 7 6 5 4 3 3 3 2 2 2 2 2 2 2 1 1 1
5 6 6 8 11 13 14 14 15 16 17 17 17 17 17 16 17 17 17 17 16 15 14 13 13 12 11 11 9 8 7 7 6 5 4 3 2 2 2 2 1 1 1 1 2 2 2 2 2
6 5 5 7 9 11 12 12 13 14 15 16 16 16 16 16 16 16 16 17 16 16 15 14 13 12 11 11 10 9 8 7 6 5 3 3 2 1 1 0 0 1 1 2 2 3 3 3 4
4 4 4 6 7 8 9 10 11 12 13 14 14 15 15 16 16 15 15 15 16 16 16 15 14 13 11 11 10 9 8 7 6 5 4 3 3 2 1 1 2 2 2 3 3 4 4 5 5
4 2 1 3 5 7 7 8 9 10 11 12 13 14 14 15 15 15 15 15 15 15 15 15 14 14 12 11 10 9 8 7 7 6 5 4 4 3 3 2 3 3 4 4 4 5 5 6 6
7 4 4 4 5 6 8 8 6 7 8 10 11 12 13 13 14 14 14 14 14 15 14 14 14 14 13 12 11 10 9 8 7 6 6 5 5 4 4 4 4 4 5 5 5 6 6 7 7
9 8 7 7 7 8 9 8 7 6 6 7 9 10 11 12 12 12 12 13 13 14 14 14 14 14 14 13 12 11 9 8 8 7 7 6 5 5 4 4 5 5 6 6 7 7 7 7 8
12 11 11 10 10 9 10 9 8 6 5 5 6 7 8 10 11 11 11 12 12 12 13 13 14 13 13 13 12 11 10 9 8 8 7 7 7 6 6 5 5 6 7 7 8 9 9 9 9
14 13 14 13 12 11 11 10 9 7 6 4 4 5 6 7 8 9 10 10 10 11 12 13 13 14 14 13 12 11 10 10 9 8 8 7 7 7 7 7 6 6 7 8 8 9 9 9 10
17 17 16 15 13 13 12 11 10 9 7 6 4 4 4 4 5 6 8 8 9 10 11 12 12 13 14 13 13 12 11 10 10 9 9 8 8 8 8 8 8 8 8 8 9 9 9 10 10
19 19 18 17 15 13 12 12 10 9 9 8 5 4 4 4 4 5 6 7 7 8 9 10 11 12 13 13 13 12 11 10 10 10 10 9 9 9 10 9 9 9 9 9 9 10 11 11 11
21 21 21 19 17 15 15 15 11 10 10 9 7 6 5 3 2 3 4 5 6 7 8 9 10 11 12 12 12 12 11 10 10 10 10 10 10 10 10 11 10 10 10 10 10 11 11 11 11
23 22 20 19 18 18 18 15 12 11 11 9 8 7 4 3 2 2 3 4 4 6 6 7 9 10 11 12 12 12 11 10 10 10 11 11 11 11 12 12 12 12 11 11 10 10 11 11 11
23 21 22 22 21 21 20 17 13 11 11 10 8 8 6 5 4 3 3 4 5 6 5 7 8 9 10 11 12 12 12 12 11 11 11 12 13 13 13 13 13 12 12 11 11 11 11 12 12
25 25 24 23 22 21 21 19 15 14 11 11 10 9 10 8 7 5 5 5 5 6 5 6 7 8 9 10 10 11 12 12 12 12 12 13 13 13 14 14 13 13 13 12 12 12 12 12 12
26 26 26 26 25 23 22 21 17 15 13 12 12 11 11 11 10 8 6 7 7 6 6 6 7 8 9 10 10 10 11 12 12 13 13 13 13 13 14 14 14 14 14 14 13 13 13 13 13
Wind_Direction
61 54 47 42 38 38 38 42 44 43 42 43 41 40 42 51 60 59 63 72 77 78 74 72 73 75 77 78 78 77 77 76 78 91 105 111 110 107 107 113 113 114 116 118 121 122 124 122 122
59 52 45 40 38 38 39 42 45 44 44 45 44 44 45 54 59 62 64 72 77 76 73 72 74 76 78 80 81 80 81 85 88 96 105 113 115 113 110 112 114 117 119 121 122 123 125 123 123
54 49 44 40 40 39 40 43 42 45 46 45 46 48 51 56 57 62 68 72 77 77 74 74 76 78 79 82 84 82 85 94 96 102 110 115 120 119 116 114 115 117 120 119 120 122 123 123 122
54 49 43 39 39 40 41 44 43 47 46 47 50 50 54 57 59 62 69 74 79 78 76 76 78 80 81 81 84 85 86 92 94 94 102 114 118 122 118 114 116 118 118 117 118 120 119 120 120
50 45 41 40 41 41 41 43 46 47 47 49 52 52 55 59 61 62 70 77 82 80 78 77 77 79 79 80 83 85 88 90 92 99 104 108 117 120 118 117 118 119 119 117 117 118 119 119 117
47 44 38 38 40 40 41 43 45 46 47 50 53 53 56 61 62 64 72 78 80 79 78 77 76 76 78 80 81 83 89 90 97 106 109 111 118 118 119 116 115 120 121 121 122 120 119 118 118
47 43 38 36 39 40 44 46 47 48 48 49 51 53 55 60 64 65 72 75 76 76 78 76 75 75 77 80 81 83 88 90 100 107 113 121 125 125 121 117 117 118 120 123 123 122 123 123 118
48 46 40 37 38 40 44 47 48 48 48 49 51 53 55 60 65 65 69 74 77 78 77 76 75 77 79 81 84 84 89 92 95 101 106 115 120 123 125 122 122 122 125 128 125 124 120 119 117
50 43 39 36 37 41 44 46 49 50 49 51 53 54 54 57 64 67 66 71 75 79 78 77 76 80 81 82 85 85 88 90 95 100 105 110 118 119 119 122 122 121 125 124 121 120 117 116 115
48 41 40 38 39 43 45 46 48 50 49 51 53 55 56 58 62 67 67 69 73 75 76 78 80 81 82 83 85 87 90 91 97 102 105 108 115 118 120 122 120 122 123 122 121 120 118 114 111
46 46 45 42 40 43 46 47 48 48 47 50 52 54 56 59 61 64 66 68 70 73 76 77 79 82 83 84 84 88 90 92 97 101 106 108 112 116 119 123 130 133 132 127 126 121 119 112 110
57 54 50 48 45 48 49 47 47 48 46 48 50 52 55 58 61 63 65 68 70 72 74 77 79 80 83 80 81 85 87 90 91 102 109 110 111 114 118 125 140 140 139 136 135 128 119 114 112
57 56 50 47 46 49 50 48 45 47 47 47 50 53 56 57 59 60 62 65 69 71 70 68 68 72 75 76 79 82 85 86 87 95 102 106 107 109 123 135 135 145 145 135 127 130 120 117 106
56 52 50 48 48 48 47 46 43 45 47 47 48 52 54 55 57 58 59 61 64 66 64 63 64 66 70 74 73 77 85 86 88 94 95 101 107 108 110 123 123 131 141 151 148 144 136 123 93
70 55 51 50 49 47 44 44 45 43 45 45 46 48 51 54 56 56 56 57 59 61 61 62 62 64 69 72 74 75 79 82 83 86 87 94 104 114 111 118 124 139 144 160 189 205 217 271 300
84 65 50 45 41 42 42 40 43 43 43 43 44 46 48 53 54 54 54 55 55 56 58 58 59 62 66 69 70 71 71 73 73 77 76 73 84 112 118 123 135 177 202 216 224 241 257 269 281
94 65 35 29 28 30 38 35 37 40 40 41 41 44 46 51 53 53 53 54 54 53 55 57 58 61 62 63 64 64 63 64 62 57 62 63 57 59 85 142 234 272 280 270 266 269 276 276 279
104 78 46 19 15 13 23 28 28 33 38 40 39 41 44 47 49 51 52 52 52 53 56 57 59 61 59 58 59 59 55 53 51 49 49 45 31 12 336 293 290 287 296 290 288 290 289 286 281
151 166 283 332 344 345 357 13 19 24 35 39 38 40 42 44 46 49 50 51 52 53 55 58 59 58 55 53 52 51 49 45 42 41 38 28 13 355 332 308 287 285 293 295 293 296 295 290 287
183 210 241 265 294 308 327 342 5 19 33 38 41 40 41 42 43 46 49 51 52 51 51 52 53 51 48 46 45 45 43 40 38 36 30 21 8 353 336 324 309 297 293 295 291 294 294 290 286
199 220 243 260 263 284 295 309 327 355 29 42 46 42 40 41 41 43 47 49 49 48 48 48 47 46 43 41 39 37 36 33 32 28 23 18 10 4 351 334 322 311 301 295 294 289 288 288 288
220 231 237 243 253 271 279 286 297 319 356 32 38 39 37 39 38 40 43 46 47 46 45 44 43 41 40 38 35 33 32 28 24 18 15 13 9 3 353 341 330 318 309 305 302 299 290 288 285
228 234 233 237 248 256 267 270 279 302 325 344 11 24 25 32 38 41 40 42 44 44 42 40 39 37 34 32 32 29 29 27 23 18 14 11 7 1 352 341 330 324 316 310 308 308 302 296 292
227 229 227 230 240 250 263 266 273 293 304 315 321 341 352 14 37 37 38 37 39 39 39 38 35 33 31 29 27 25 25 24 21 17 14 11 6 360 353 342 335 329 323 314 309 308 305 304 301
223 226 225 226 232 245 252 260 272 287 294 299 307 315 330 334 17 26 26 29 30 32 33 32 29 28 26 24 22 19 18 17 16 12 9 7 2 359 354 345 339 335 329 319 313 309 307 302 303
221 224 226 229 233 243 249 260 272 268 275 284 283 286 303 322 9 19 11 15 17 18 20 22 22 20 18 18 17 14 12 12 12 12 10 5 0 354 350 347 343 337 330 324 318 313 309 306 306
223 229 231 235 240 246 248 254 256 262 263 270 263 262 283 293 303 341 345 352 352 355 2 4 7 9 9 10 9 8 9 9 8 6 5 360 356 353 349 345 341 338 332 325 321 318 313 310 309
224 227 229 233 242 248 253 253 254 259 267 264 257 259 266 273 279 288 304 311 323 329 338 344 348 352 357 2 6 9 8 7 6 2 359 355 351 351 348 343 342 339 337 329 322 317 316 313 308
222 225 229 235 240 245 253 255 255 257 262 260 264 270 262 263 282 290 295 292 297 307 313 327 331 335 341 344 349 355 357 358 357 353 351 348 348 350 351 350 346 343 339 333 326 319 315 312 308
224 226 229 234 238 244 251 257 260 259 257 262 267 273 266 264 266 267 276 283 288 293 292 299 309 316 323 329 336 342 345 345 344 344 343 342 343 342 343 343 343 341 338 332 325 319 314 310 306
Height
5905 5903 5902 5901 5899 5897 5895 5895 5893 5892 5891 5889 5888 5887 5886 5886 5885 5886 5883 5881 5880 5880 5880 5879 5879 5878 5878 5878 5877 5877 5877 5877 5876 5876 5876 5876 5876 5876 5876 5876 5877 5877 5878 5879 5880 5881 5882 5882 5883
5907 5906 5905 5903 5900 5898 5897 5896 5895 5894 5892 5890 5889 5888 5887 5886 5885 5884 5883 5882 5881 5881 5881 5880 5880 5880 5879 5879 5879 5879 5878 5878 5878 5878 5878 5877 5878 5878 5878 5878 5879 5879 5880 5881 5882 5883 5884 5884 5885
5909 5908 5907 5904 5901 5900 5899 5897 5896 5894 5893 5892 5891 5890 5889 5888 5886 5885 5884 5883 5883 5882 5882 5882 5881 5881 5881 5881 5881 5880 5879 5879 5880 5880 5879 5879 5880 5880 5880 5881 5881 5882 5882 5883 5883 5884 5885 5886 5887
5912 5911 5908 5906 5904 5902 5900 5899 5898 5896 5895 5894 5892 5891 5890 5889 5887 5886 5885 5884 5884 5884 5884 5883 5883 5883 5882 5882 5882 5881 5881 5881 5881 5881 5881 5881 5882 5882 5882 5883 5883 5884 5884 5885 5886 5887 5887 5888 5888
5914 5912 5910 5908 5906 5905 5903 5901 5900 5899 5897 5895 5894 5893 5892 5890 5888 5887 5886 5886 5886 5886 5885 5885 5885 5884 5884 5884 5884 5883 5883 5882 5883 5883 5883 5883 5883 5884 5885 5885 5885 5886 5886 5887 5888 5889 5889 5889 5890
5917 5914 5913 5911 5909 5907 5906 5904 5902 5901 5899 5897 5896 5895 5893 5892 5890 5888 5888 5888 5887 5887 5887 5887 5886 5886 5886 5886 5885 5885 5885 5884 5884 5884 5884 5885 5885 5886 5887 5887 5887 5888 5889 5889 5890 5890 5891 5891 5892
5919 5917 5915 5914 5912 5910 5909 5907 5905 5903 5901 5899 5898 5897 5895 5894 5892 5891 5890 5889 5889 5889 5889 5888 5888 5888 5888 5887 5887 5887 5886 5886 5886 5886 5886 5886 5887 5888 5888 5889 5889 5890 5890 5891 5891 5892 5892 5893 5893
5920 5920 5919 5917 5915 5913 5912 5910 5908 5906 5904 5902 5900 5899 5897 5896 5894 5893 5892 5891 5891 5891 5890 5890 5890 5890 5889 5889 5889 5889 5888 5888 5888 5888 5888 5887 5888 5889 5889 5890 5891 5891 5892 5892 5893 5893 5893 5894 5894
5922 5923 5921 5920 5918 5916 5914 5913 5911 5909 5907 5905 5903 5901 5900 5898 5897 5895 5894 5893 5893 5892 5892 5892 5891 5891 5891 5891 5890 5890 5890 5890 5890 5890 5890 5890 5890 5890 5891 5892 5892 5893 5893 5894 5894 5894 5894 5895 5895
5924 5925 5924 5922 5921 5919 5917 5915 5913 5911 5910 5907 5905 5903 5902 5900 5899 5898 5897 5896 5895 5894 5894 5893 5893 5893 5892 5892 5892 5892 5892 5891 5891 5892 5892 5891 5891 5892 5893 5893 5894 5894 5894 5895 5895 5895 5896 5896 5896
5927 5927 5926 5924 5922 5921 5919 5918 5916 5914 5913 5911 5908 5906 5904 5903 5901 5900 5899 5898 5897 5896 5896 5895 5894 5894 5894 5894 5893 5893 5893 5893 5893 5893 5893 5892 5893 5894 5894 5895 5895 5895 5896 5896 5896 5896 5897 5897 5897
5929 5928 5927 5926 5925 5924 5922 5921 5919 5917 5916 5914 5911 5909 5907 5906 5904 5902 5901 5900 5900 5899 5898 5897 5897 5896 5895 5895 5895 5895 5894 5894 5894 5894 5894 5894 5895 5895 5895 5896 5896 5896 5897 5897 5897 5897 5898 5898 5898
5930 5930 5929 5928 5927 5926 5925 5924 5923 5920 5918 5916 5914 5912 5911 5909 5907 5905 5903 5902 5902 5901 5900 5899 5898 5897 5897 5897 5896 5896 5896 5896 5896 5896 5896 5896 5896 5896 5896 5897 5897 5897 5897 5897 5898 5898 5898 5898 5898
5931 5931 5931 5930 5929 5928 5928 5927 5925 5923 5921 5919 5917 5915 5913 5911 5910 5908 5906 5905 5904 5902 5901 5901 5900 5899 5899 5898 5898 5898 5897 5897 5897 5897 5897 5898 5897 5897 5898 5898 5898 5898 5898 5898 5898 5898 5898 5898 5898
5933 5933 5932 5931 5930 5930 5930 5929 5928 5926 5924 5922 5920 5918 5916 5914 5913 5911 5909 5907 5906 5904 5903 5902 5901 5900 5900 5899 5899 5899 5899 5899 5898 5898 5898 5899 5898 5898 5898 5898 5898 5899 5899 5899 5898 5898 5898 5898 5898
5933 5934 5934 5934 5932 5932 5933 5931 5930 5928 5926 5924 5922 5921 5919 5917 5915 5913 5911 5910 5908 5906 5905 5904 5902 5902 5901 5901 5901 5900 5900 5900 5900 5899 5899 5899 5899 5899 5899 5899 5899 5899 5899 5899 5898 5898 5898 5898 5897
5934 5934 5934 5934 5933 5933 5933 5932 5931 5930 5928 5926 5925 5923 5921 5919 5917 5915 5914 5912 5910 5909 5907 5906 5904 5904 5903 5903 5902 5902 5901 5901 5900 5900 5899 5899 5899 5899 5899 5899 5899 5899 5899 5898 5898 5898 5898 5897 5896
5934 5934 5934 5934 5934 5933 5933 5933 5933 5931 5930 5928 5927 5925 5923 5921 5920 5918 5916 5915 5913 5911 5910 5908 5907 5906 5905 5904 5904 5903 5903 5902 5901 5900 5900 5900 5899 5899 5899 5899 5898 5898 5898 5898 5897 5897 5897 5896 5895
5933 5934 5934 5935 5934 5933 5933 5933 5933 5932 5931 5930 5928 5927 5925 5923 5922 5920 5919 5917 5916 5914 5912 5911 5909 5908 5907 5906 5905 5904 5904 5903 5902 5901 5900 5900 5899 5899 5898 5898 5898 5898 5897 5897 5897 5896 5895 5895 5894
5932 5933 5933 5934 5934 5934 5933 5933 5933 5933 5932 5931 5929 5928 5927 5925 5924 5922 5921 5919 5918 5916 5915 5913 5912 5910 5909 5907 5906 5905 5904 5903 5902 5902 5901 5900 5899 5898 5898 5898 5897 5897 5896 5896 5895 5895 5894 5893 5893
5930 5932 5932 5933 5934 5933 5933 5933 5933 5933 5932 5931 5930 5929 5928 5926 5925 5924 5922 5921 5919 5918 5916 5915 5913 5912 5910 5909 5907 5906 5905 5904 5903 5902 5901 5900 5899 5898 5898 5897 5896 5895 5895 5894 5893 5893 5892 5892 5891
5929 5931 5931 5932 5932 5932 5932 5932 5932 5931 5932 5931 5930 5929 5928 5927 5926 5925 5924 5922 5921 5920 5918 5917 5915 5913 5912 5910 5909 5907 5906 5904 5903 5902 5901 5900 5899 5898 5897 5896 5895 5894 5893 5893 5892 5891 5890 5889 5888
5927 5929 5930 5930 5930 5930 5930 5930 5931 5930 5930 5930 5929 5928 5928 5928 5927 5926 5925 5923 5922 5921 5920 5918 5916 5914 5912 5911 5909 5908 5906 5905 5904 5902 5901 5900 5899 5897 5896 5895 5894 5893 5892 5891 5890 5889 5888 5887 5886
5924 5926 5927 5927 5928 5928 5929 5928 5929 5928 5928 5928 5928 5927 5927 5927 5926 5926 5925 5924 5923 5922 5920 5919 5917 5916 5914 5912 5910 5908 5906 5905 5904 5902 5901 5899 5898 5897 5895 5894 5892 5891 5890 5889 5888 5887 5886 5885 5883
5920 5922 5923 5924 5924 5926 5926 5926 5927 5927 5927 5926 5926 5926 5926 5926 5926 5925 5925 5925 5923 5922 5921 5919 5918 5916 5914 5913 5911 5909 5907 5905 5904 5902 5901 5899 5897 5896 5894 5893 5891 5890 5888 5887 5886 5884 5883 5882 5881
5916 5918 5920 5921 5921 5923 5923 5922 5925 5925 5925 5924 5924 5924 5925 5925 5925 5924 5924 5924 5923 5922 5921 5920 5918 5917 5915 5913 5911 5909 5907 5905 5904 5902 5901 5899 5897 5896 5894 5892 5890 5888 5886 5885 5883 5882 5880 5879 5877
5911 5913 5916 5917 5917 5918 5918 5920 5921 5921 5922 5922 5921 5922 5922 5923 5923 5923 5923 5922 5922 5921 5921 5920 5918 5917 5915 5913 5911 5909 5907 5905 5903 5902 5900 5898 5897 5895 5893 5891 5889 5887 5884 5883 5881 5879 5878 5876 5875
5907 5910 5911 5912 5913 5913 5914 5915 5917 5918 5919 5919 5919 5919 5920 5921 5921 5921 5920 5920 5920 5920 5919 5918 5917 5916 5915 5913 5911 5909 5907 5905 5903 5901 5899 5898 5896 5894 5891 5889 5887 5885 5882 5880 5878 5877 5875 5873 5871
5902 5904 5905 5907 5908 5909 5909 5912 5913 5914 5915 5915 5916 5917 5918 5918 5918 5918 5918 5919 5918 5918 5917 5917 5916 5915 5914 5912 5910 5908 5906 5904 5902 5900 5898 5896 5894 5892 5889 5887 5885 5883 5880 5878 5876 5874 5872 5870 5868
5896 5898 5901 5903 5904 5905 5905 5909 5908 5910 5911 5912 5913 5914 5915 5915 5915 5915 5916 5916 5916 5916 5915 5915 5914 5913 5912 5910 5908 5907 5905 5903 5901 5899 5897 5894 5892 5890 5888 5886 5883 5881 5878 5876 5873 5871 5869 5867 5865